Карточка аэропорта UATG

Внимание!
Информация на этой странице в стадии наполнения.
Если вы не увидели какой-то информации, или заметили неточность - пожалуйста сообщите нам!
Спасибо!
Команда RU-STAFF
Название аэропортаАтырау
Название аэропорта (англ.)Atyrau
Превышение-72 ft. (-21.9 m.)
Координаты47°7.332', 51°49.764'
Высота перехода10000ft
Эшелон переходаFL120, QNH<733:FL130
Коды ответчика3450-3457, 3560-3567
Зона ОрВДАктобе РПИ (UATT)
Данные METARUATG 041230Z 02004MPS 4300 -SN BR SCT008 OVC023 M05/M07 Q1015 NOSIG RMK QFE763/1018
Проноз погоды (TAF)UATG 041100Z 0412/0512 01005MPS 2000 SN BR BKN005 OVC020 TXM04/0510Z TNM12/0503Z TEMPO 0412/0416 1000 BKN003 OVC015 FM041800 32005MPS 4000 BR BKN011 TEMPO 0418/0503 0300 FZFG VV001
NOTAMshow/hide NOTAM
AWOS   TABLE

Информация о ВПП

ВПП Длина ВПП (м.) Покрытие Курс ВПП Частота ILS
143000Асфальтобетон149109.9
323000Асфальтобетон329108.3

Диспетчерские позиции

Позывной Наименование органа УВД Частота
UATG_APPАтырау Подход123.7
UATG_TWRАтырау Вышка118.1



Спутниковое изображение